Weather History for Canby, MN

Change the Weather History Date:

Monday, October 29, 2012

  Actual Average (KMML) Record (KMML)
Temperature  
Mean Temperature 44 °F -  
Max Temperature 54 °F 52 °F 79 °F (1950)
Min Temperature 33 °F 30 °F 12 °F (1967)
Degree Days  
Heating Degree Days 22    
Moisture  
Dew Point 32 °F    
Average Humidity 67    
Maximum Humidity 94    
Minimum Humidity 42    
Precipitation  
Precipitation 0.00 in - - ()
Sea Level Pressure  
Sea Level Pressure 30.15 in    
Wind  
Wind Speed 9 mph (SE)    
Max Wind Speed 16 mph    
Max Gust Speed 24 mph    
Visibility 10 miles    
Events      
Averages and records for this station are not official NWS values.
T = Trace of Precipitation, MM = Missing Value Source: NWS Daily Summary

Daily Weather History Graph

Daily Weather History Graph

Search for Another Location

Airport:

Trip Planner

Search our weather history database for the weather conditions in past years. The results will help you decide how hot, cold, wet, or windy it might be!

Date:

Astronomy

Oct. 29, 2012 Rise Set
Actual Time 7:59 AM CDT 6:17 PM CDT
Civil Twilight 7:29 AM CDT 6:47 PM CDT
Nautical Twilight 6:54 AM CDT 7:21 PM CDT
Astronomical Twilight 6:20 AM CDT 7:55 PM CDT
Moon 6:07 PM CDT (10/29) 7:52 AM CDT (10/29)
Length of Visible Light 11h 18m
Length of Day
10h 17m
Full, 100% of the Moon is Illuminated
Oct 29
Full
Oct 29
Full
Nov 6
Last Quarter
Nov 13
New
Nov 20
First Quarter

Hourly Weather History & Observations

Time (CDT) Temp. Windchill Dew Point Humidity Pressure Visibility Wind Dir Wind Speed Gust Speed Precip Events Conditions
12:14 AM 33.3 °F 27.1 °F 31.6 °F 94% 30.18 in 10.0 mi SE 6.9 mph - N/A   Clear
12:35 AM 33.4 °F 28.1 °F 31.6 °F 93% 30.18 in 10.0 mi SE 5.8 mph - N/A   Clear
12:55 AM 33.3 °F 27.1 °F 31.5 °F 93% 30.18 in 10.0 mi SE 6.9 mph - N/A   Clear
1:14 AM 33.8 °F 27.0 °F 31.8 °F 92% 30.18 in 10.0 mi SE 8.1 mph - N/A   Scattered Clouds
1:35 AM 35.2 °F 28.8 °F 32.0 °F 88% 30.17 in 10.0 mi SE 8.1 mph - N/A   Scattered Clouds
1:54 AM 35.1 °F 28.6 °F 32.0 °F 89% 30.17 in 10.0 mi SE 8.1 mph - N/A   Mostly Cloudy
2:14 AM 35.6 °F 29.9 °F 32.0 °F 87% 30.16 in 10.0 mi SE 6.9 mph - N/A   Scattered Clouds
2:35 AM 36.1 °F 29.9 °F 32.4 °F 86% 30.16 in 10.0 mi SE 8.1 mph - N/A   Clear
2:55 AM 37.6 °F 32.3 °F 32.4 °F 81% 30.16 in 10.0 mi SE 6.9 mph - N/A   Clear
3:14 AM 37.9 °F 33.5 °F 32.2 °F 80% 30.17 in 10.0 mi SSE 5.8 mph - N/A   Scattered Clouds
3:35 AM 39.2 °F 33.6 °F 32.2 °F 76% 30.16 in 10.0 mi SSE 8.1 mph - N/A   Mostly Cloudy
3:54 AM 39.2 °F 33.0 °F 32.2 °F 76% 30.16 in 10.0 mi SE 9.2 mph - N/A   Overcast
4:14 AM 39.4 °F 33.8 °F 32.0 °F 75% 30.15 in 10.0 mi SE 8.1 mph - N/A   Overcast
4:35 AM 39.4 °F 33.8 °F 32.0 °F 75% 30.15 in 10.0 mi SE 8.1 mph - N/A   Overcast
4:54 AM 39.4 °F 32.7 °F 32.0 °F 75% 30.14 in 10.0 mi SE 10.4 mph - N/A   Overcast
5:14 AM 39.4 °F 33.2 °F 31.8 °F 74% 30.15 in 10.0 mi ESE 9.2 mph - N/A   Overcast
5:54 AM 39.0 °F 32.3 °F 32.0 °F 76% 30.14 in 10.0 mi SE 10.4 mph - N/A   Overcast
6:15 AM 39.0 °F 34.0 °F 31.6 °F 75% 30.15 in 10.0 mi SE 6.9 mph - N/A   Overcast
6:34 AM 38.3 °F 33.2 °F 31.8 °F 77% 30.15 in 10.0 mi ESE 6.9 mph - N/A   Overcast
6:55 AM 38.3 °F 32.5 °F 31.8 °F 77% 30.14 in 10.0 mi SE 8.1 mph - N/A   Overcast
7:14 AM 38.7 °F 34.3 °F 31.8 °F 76% 30.15 in 10.0 mi SSE 5.8 mph - N/A   Overcast
7:35 AM 39.4 °F 33.2 °F 31.6 °F 74% 30.15 in 10.0 mi SE 9.2 mph - N/A   Overcast
7:54 AM 39.6 °F 33.0 °F 31.5 °F 73% 30.15 in 10.0 mi SE 10.4 mph - N/A   Overcast
8:15 AM 39.7 °F 32.3 °F 31.1 °F 71% 30.15 in 10.0 mi SE 12.7 mph - N/A   Overcast
8:34 AM 39.6 °F 32.5 °F 31.5 °F 73% 30.15 in 10.0 mi SE 11.5 mph - N/A   Overcast
8:54 AM 39.9 °F 33.9 °F 31.6 °F 72% 30.15 in 10.0 mi SE 9.2 mph - N/A   Overcast
9:15 AM 40.5 °F 34.6 °F 32.0 °F 72% 30.15 in 10.0 mi SE 9.2 mph - N/A   Overcast
9:34 AM 41.9 °F 35.9 °F 31.6 °F 67% 30.15 in 10.0 mi SSE 10.4 mph - N/A   Overcast
9:55 AM 42.8 °F 36.2 °F 30.4 °F 62% 30.16 in 10.0 mi SSE 12.7 mph 18.4 mph N/A   Mostly Cloudy
10:14 AM 44.6 °F 38.4 °F 30.7 °F 58% 30.15 in 10.0 mi SSE 12.7 mph 20.7 mph N/A   Scattered Clouds
10:34 AM 44.6 °F 38.1 °F 30.7 °F 58% 30.15 in 10.0 mi SSE 13.8 mph 21.9 mph N/A   Scattered Clouds
10:55 AM 47.3 °F - 30.9 °F 53% 30.16 in 10.0 mi South 12.7 mph 17.3 mph N/A   Mostly Cloudy
11:15 AM 47.3 °F - 30.4 °F 52% 30.17 in 10.0 mi South 13.8 mph 23.0 mph N/A   Mostly Cloudy
11:34 AM 48.7 °F - 30.4 °F 49% 30.17 in 10.0 mi South 15.0 mph 19.6 mph N/A   Mostly Cloudy
11:55 AM 49.1 °F - 30.6 °F 49% 30.17 in 10.0 mi SSE 15.0 mph 21.9 mph N/A   Clear
12:15 PM 49.6 °F - 30.7 °F 48% 30.17 in 10.0 mi South 16.1 mph - N/A   Clear
12:34 PM 50.0 °F - 31.1 °F 48% 30.16 in 10.0 mi SSE 12.7 mph - N/A   Clear
1:15 PM 51.8 °F - 31.6 °F 46% 30.15 in 10.0 mi SSE 11.5 mph 20.7 mph N/A   Clear
1:35 PM 52.7 °F - 31.8 °F 45% 30.14 in 10.0 mi SSE 13.8 mph 19.6 mph N/A   Clear
1:54 PM 52.7 °F - 31.8 °F 45% 30.14 in 10.0 mi SSE 15.0 mph 18.4 mph N/A   Clear
2:15 PM 52.9 °F - 31.6 °F 44% 30.13 in 10.0 mi SSE 12.7 mph 20.7 mph N/A   Clear
2:34 PM 53.6 °F - 31.8 °F 44% 30.13 in 10.0 mi SSE 12.7 mph 18.4 mph N/A   Clear
2:55 PM 54.0 °F - 31.8 °F 43% 30.12 in 10.0 mi SSE 12.7 mph 24.2 mph N/A   Clear
3:15 PM 54.1 °F - 31.6 °F 42% 30.13 in 10.0 mi SSE 11.5 mph 19.6 mph N/A   Clear
3:35 PM 54.5 °F - 31.6 °F 42% 30.12 in 10.0 mi SE 11.5 mph 17.3 mph N/A   Clear
3:54 PM 54.7 °F - 31.8 °F 42% 30.12 in 10.0 mi SE 12.7 mph 19.6 mph N/A   Clear
4:15 PM 54.5 °F - 31.5 °F 42% 30.12 in 10.0 mi South 10.4 mph 19.6 mph N/A   Clear
4:34 PM 54.5 °F - 32.0 °F 42% 30.12 in 10.0 mi SSE 10.4 mph 16.1 mph N/A   Clear
4:54 PM 54.1 °F - 31.8 °F 43% 30.12 in 10.0 mi SSE 11.5 mph 17.3 mph N/A   Clear
5:15 PM 53.6 °F - 31.8 °F 44% 30.12 in 10.0 mi SSE 10.4 mph - N/A   Clear
5:34 PM 52.7 °F - 31.8 °F 45% 30.12 in 10.0 mi SSE 10.4 mph - N/A   Clear
5:54 PM 51.1 °F - 32.0 °F 48% 30.12 in 10.0 mi SE 9.2 mph - N/A   Clear
6:15 PM 47.7 °F - 32.2 °F 55% 30.13 in 10.0 mi ESE 5.8 mph - N/A   Clear
6:34 PM 45.7 °F 42.0 °F 32.0 °F 59% 30.13 in 10.0 mi SE 6.9 mph - N/A   Clear
6:55 PM 43.9 °F 40.5 °F 32.0 °F 63% 30.14 in 10.0 mi SE 5.8 mph - N/A   Clear
7:14 PM 43.5 °F 38.9 °F 32.0 °F 64% 30.14 in 10.0 mi ESE 8.1 mph - N/A   Clear
7:35 PM 42.4 °F 37.5 °F 32.0 °F 67% 30.14 in 10.0 mi ESE 8.1 mph - N/A   Clear
7:54 PM 42.3 °F 36.8 °F 32.0 °F 67% 30.14 in 10.0 mi ESE 9.2 mph - N/A   Clear
8:14 PM 41.4 °F 35.7 °F 32.0 °F 69% 30.15 in 10.0 mi ESE 9.2 mph - N/A   Clear
8:35 PM 41.0 °F 34.7 °F 32.0 °F 70% 30.15 in 10.0 mi ESE 10.4 mph - N/A   Clear
8:54 PM 40.6 °F 36.0 °F 32.0 °F 71% 30.15 in 10.0 mi ESE 6.9 mph - N/A   Clear
9:15 PM 38.8 °F 32.6 °F 31.6 °F 75% 30.15 in 10.0 mi ESE 9.2 mph - N/A   Clear
9:35 PM 37.6 °F 31.6 °F 31.6 °F 79% 30.15 in 10.0 mi ESE 8.1 mph - N/A   Clear
9:54 PM 37.9 °F 30.9 °F 31.6 °F 78% 30.16 in 10.0 mi ESE 10.4 mph - N/A   Clear
10:15 PM 37.0 °F 29.8 °F 31.8 °F 81% 30.15 in 10.0 mi SE 10.4 mph - N/A   Clear
10:35 PM 36.3 °F 29.5 °F 31.6 °F 83% 30.16 in 10.0 mi SE 9.2 mph - N/A   Clear
10:54 PM 35.6 °F 29.2 °F 31.1 °F 84% 30.16 in 10.0 mi SE 8.1 mph - N/A   Clear
11:15 PM 35.6 °F 28.6 °F 31.1 °F 84% 30.15 in 10.0 mi SE 9.2 mph - N/A   Clear
11:35 PM 34.7 °F 28.8 °F 30.9 °F 86% 30.15 in 10.0 mi SE 6.9 mph - N/A   Clear
11:54 PM 33.6 °F 28.4 °F 30.2 °F 87% 30.15 in 10.0 mi SE 5.8 mph - N/A   Clear